Location: Newark
(35.5300°N, 14.3000°E)
Time: 06:06:56
(UTC+00:00)

Tiros 1 despin weight - All Passes

Search period start: 20 November 2019 00:00
Search period end: 30 November 2019 00:00
Orbit: 594 x 642 km, 48.2° (Epoch: 18 November)

Date Brightness Start Highest point End Pass type
(mag) Time Alt. Az. Time Alt. Az. Time Alt. Az.
20 Nov - 09:31:48 10° SSE 09:33:20 12° SE 09:34:52 10° ESE daylight
20 Nov - 11:09:54 10° SW 11:14:18 83° SE 11:18:43 10° NE daylight
20 Nov - 12:52:36 10° WNW 12:56:13 25° NNW 12:59:54 10° NE daylight
20 Nov - 14:36:16 10° NW 14:38:58 16° N 14:41:43 10° NE daylight
20 Nov - 16:17:58 10° NW 16:21:43 25° NNE 16:25:30 10° ENE visible
20 Nov - 17:59:08 10° NW 18:03:39 81° SW 18:08:14 10° SE visible
20 Nov - 19:42:53 10° WSW 19:44:39 12° SW 19:46:27 10° SSW visible
21 Nov - 09:45:57 10° S 09:49:35 25° SE 09:53:14 10° ENE daylight
21 Nov - 11:26:36 10° WSW 11:30:54 51° NNW 11:35:13 10° NE daylight
21 Nov - 13:10:05 10° WNW 13:13:13 19° NNW 13:16:22 10° NNE daylight
21 Nov - 14:53:09 10° NNW 14:56:05 17° N 14:59:02 10° NE daylight
21 Nov - 16:34:22 10° NW 16:38:34 39° NNE 16:42:49 10° E visible
21 Nov - 18:15:55 10° WNW 18:20:07 39° SW 18:24:22 10° SSE visible
22 Nov - 10:01:40 10° SW 10:05:58 54° SE 10:10:16 10° ENE daylight
22 Nov - 11:43:45 10° W 11:47:40 31° NNW 11:51:37 10° NE daylight
22 Nov - 13:27:31 10° NW 13:30:17 16° N 13:33:04 10° NE daylight
22 Nov - 15:09:42 10° NNW 15:13:06 21° NNE 15:16:33 10° ENE daylight
22 Nov - 16:50:47 10° NW 16:55:16 69° NE 16:59:47 10° ESE visible
22 Nov - 18:33:16 10° W 18:36:27 19° SW 18:39:40 10° S visible
23 Nov - 08:38:35 10° S 08:41:23 17° SE 08:44:09 10° E daylight
23 Nov - 10:18:05 10° WSW 10:22:29 75° NW 10:26:54 10° NE daylight
23 Nov - 12:01:10 10° WNW 12:04:35 21° NNW 12:08:01 10° NE daylight
23 Nov - 13:44:39 10° NW 13:47:24 16° N 13:50:09 10° NE daylight
23 Nov - 15:26:06 10° NW 15:30:02 30° NNE 15:34:00 10° E daylight
23 Nov - 17:07:23 10° WNW 17:11:48 60° SW 17:16:16 10° SE visible
24 Nov - 08:53:40 10° SSW 08:57:41 35° SE 09:01:42 10° ENE daylight
24 Nov - 10:35:00 10° W 10:39:10 40° NNW 10:43:21 10° NE daylight
24 Nov - 12:18:41 10° NW 12:21:37 17° N 12:24:33 10° NNE daylight
24 Nov - 14:01:22 10° NNW 14:04:28 18° NNE 14:07:35 10° NE daylight
24 Nov - 15:42:29 10° NW 15:46:49 48° NNE 15:51:11 10° ESE daylight
24 Nov - 17:24:20 10° WNW 17:28:13 29° SW 17:32:07 10° SSE visible
25 Nov - 07:32:45 10° SE 07:33:12 10° SE 07:33:38 10° ESE daylight
25 Nov - 09:09:43 10° SW 09:14:07 74° SE 09:18:31 10° ENE daylight
25 Nov - 10:52:16 10° W 10:55:59 26° NNW 10:59:43 10° NE daylight
25 Nov - 12:36:01 10° NW 12:38:42 16° N 12:41:24 10° NE daylight
25 Nov - 14:17:51 10° NW 14:21:27 24° NNE 14:25:05 10° ENE daylight
25 Nov - 15:58:58 10° NW 16:03:27 90° S 16:07:57 10° SE daylight
25 Nov - 17:42:17 10° W 17:44:29 14° SW 17:46:43 10° SSW visible
26 Nov - 07:45:57 10° S 07:49:26 23° SE 07:52:55 10° E daylight
26 Nov - 09:26:21 10° WSW 09:30:42 57° NNW 09:35:03 10° NE daylight
26 Nov - 11:09:46 10° WNW 11:12:57 19° NNW 11:16:09 10° NNE daylight
26 Nov - 12:52:58 10° NNW 12:55:48 16° N 12:58:38 10° NE daylight
26 Nov - 14:34:13 10° NW 14:38:20 35° NNE 14:42:27 10° E daylight
26 Nov - 16:15:41 10° WNW 16:19:55 44° SW 16:24:12 10° SSE visible
27 Nov - 08:01:32 10° SSW 08:05:48 48° SE 08:10:03 10° ENE daylight
27 Nov - 09:43:26 10° W 09:47:26 33° NNW 09:51:28 10° NE daylight
27 Nov - 11:27:14 10° NW 11:30:00 16° N 11:32:47 10° NNE daylight
27 Nov - 13:09:33 10° NNW 13:12:51 20° NNE 13:16:09 10° ENE daylight
27 Nov - 14:50:38 10° NW 14:55:02 62° NNE 14:59:29 10° ESE daylight
27 Nov - 16:32:55 10° W 16:36:16 21° SW 16:39:39 10° S visible
28 Nov - 06:38:44 10° SSE 06:41:14 15° SE 06:43:42 10° E daylight
28 Nov - 08:17:51 10° SW 08:22:17 83° NW 08:26:43 10° NE daylight
28 Nov - 10:00:50 10° WNW 10:04:20 22° NNW 10:07:50 10° NE daylight
28 Nov - 11:44:25 10° NW 11:47:06 16° N 11:49:48 10° NE daylight
28 Nov - 13:25:58 10° NW 13:29:47 28° NNE 13:33:37 10° E daylight
28 Nov - 15:07:12 10° WNW 15:11:36 67° SW 15:16:03 10° SE daylight
29 Nov - 06:53:35 10° SSW 06:57:30 31° SE 07:01:25 10° ENE daylight
29 Nov - 08:34:42 10° WSW 08:38:56 44° NNW 08:43:11 10° NE daylight
29 Nov - 10:18:20 10° NW 10:21:20 17° N 10:24:20 10° NNE daylight
29 Nov - 12:01:12 10° NNW 12:04:11 17° N 12:07:11 10° NE daylight
29 Nov - 13:42:20 10° NW 13:46:35 44° NNE 13:50:51 10° ESE daylight
29 Nov - 15:24:04 10° WNW 15:28:02 32° SW 15:32:00 10° SSE daylight
